McConnell AFB, KS

6:23 PM CST on December 08, 2019 (GMT -0600)
McConnell Air Force Base

Weather History for KIAB - June, 2019

Change the Weather History Date:

Tuesday, June 4, 2019

  Actual Average Record
Temperature  
Mean Temperature 77 °F -  
Max Temperature 88 °F 78 °F 99 °F (2011)
Min Temperature 66 °F 59 °F 51 °F (1998)
Cooling Degree Days 12    
Growing Degree Days 27 (Base 50)    
Moisture  
Dew Point 65 °F    
Average Humidity 77    
Maximum Humidity 94    
Minimum Humidity 50    
Precipitation  
Precipitation 0.08 in - - ()
Sea Level Pressure  
Sea Level Pressure 29.85 in    
Wind  
Wind Speed 13 mph (SSE)    
Max Wind Speed 24 mph    
Max Gust Speed 38 mph    
Visibility 10 miles    
Events Rain    
Averages and records for this station are not official NWS values.
T = Trace of Precipitation, MM = Missing Value Source: NWS Daily Summary

Daily Weather History Graph

Daily Weather History Graph

Search for Another Location

Airport or City:

Astronomy

Jun. 04, 2019 Rise Set
Actual Time 6:08 AM CDT 8:46 PM CDT
Civil Twilight 5:37 AM CDT 9:17 PM CDT
Nautical Twilight 4:59 AM CDT 9:55 PM CDT
Astronomical Twilight 4:16 AM CDT 10:38 PM CDT
Moon 7:18 AM CDT (6/4) 10:16 PM CDT (6/4)
Length of Visible Light 15h 39m
Length of Day
14h 38m
New Moon, 2% of the Moon is Illuminated
Jun 4
New Moon
Jun 10
First Quarter
Jun 17
Full
Jun 25
Last Quarter
Jul 2
New

Hourly Weather History & Observations

Time (CDT) Temp. Heat Index Dew Point Humidity Pressure Visibility Wind Dir Wind Speed Gust Speed Precip Events Conditions
12:56 AM 71.2 °F - 68.2 °F 90% 29.93 in 10.0 mi SE 12.7 mph - N/A   Scattered Clouds
12:59 AM 71.6 °F - 68.0 °F 88% 29.91 in 10.0 mi SE 12.7 mph - N/A   Scattered Clouds
1:09 AM 71.6 °F - 68.0 °F 88% 29.91 in 10.0 mi SE 12.7 mph - N/A   Mostly Cloudy
1:36 AM 71.6 °F - 68.0 °F 88% 29.88 in 10.0 mi SE 11.5 mph - N/A   Scattered Clouds
1:37 AM 71.6 °F - 68.0 °F 88% 29.88 in 10.0 mi SE 11.5 mph - N/A   Mostly Cloudy
1:49 AM 71.6 °F - 68.0 °F 88% 29.89 in 9.0 mi SSE 10.4 mph - N/A   Mostly Cloudy
1:56 AM 71.2 °F - 68.7 °F 92% 29.88 in 6.0 mi SSE 12.7 mph - N/A   Mostly Cloudy
1:59 AM 71.6 °F - 69.8 °F 94% 29.88 in 6.0 mi SSE 11.5 mph - N/A   Mostly Cloudy
2:20 AM 71.6 °F - 69.8 °F 94% 29.88 in 10.0 mi SSE 9.2 mph - N/A   Scattered Clouds
2:25 AM 71.6 °F - 68.0 °F 88% 29.88 in 10.0 mi SE 11.5 mph - N/A   Mostly Cloudy
2:28 AM 71.6 °F - 69.8 °F 94% 29.88 in 10.0 mi SE 12.7 mph - N/A   Mostly Cloudy
2:29 AM 71.6 °F - 69.8 °F 94% 29.88 in 10.0 mi SE 12.7 mph - N/A   Mostly Cloudy
2:34 AM 71.6 °F - 69.8 °F 94% 29.88 in 10.0 mi SE 11.5 mph - N/A   Scattered Clouds
2:56 AM 71.1 °F - 68.9 °F 93% 29.88 in 10.0 mi SE 10.4 mph - N/A   Mostly Cloudy
3:56 AM 71.1 °F - 61.2 °F 71% 29.87 in 10.0 mi SE 16.1 mph - N/A   Clear
4:07 AM 71.6 °F - 59.0 °F 64% 29.85 in 10.0 mi South 17.3 mph 27.6 mph N/A   Partly Cloudy
4:10 AM 71.6 °F - 57.2 °F 60% 29.84 in 10.0 mi South 15.0 mph 25.3 mph N/A   Light Drizzle
4:15 AM 71.6 °F - 59.0 °F 64% 29.83 in 10.0 mi SSE 15.0 mph 25.3 mph N/A Rain Light Rain
4:31 AM 68.0 °F - 60.8 °F 78% 29.84 in 10.0 mi South 24.2 mph 36.8 mph N/A Rain Light Rain
4:56 AM 67.5 °F - 61.0 °F 80% 29.84 in 9.0 mi South 24.2 mph 36.8 mph 0.05 in Rain Light Rain
5:06 AM 68.0 °F - 60.8 °F 78% 29.85 in 9.0 mi SSE 24.2 mph 38.0 mph N/A   Overcast
5:10 AM 66.2 °F - 60.8 °F 83% 29.86 in 9.0 mi SSE 20.7 mph 38.0 mph N/A Rain Light Rain
5:17 AM 66.2 °F - 62.6 °F 88% 29.84 in 10.0 mi SSE 16.1 mph - N/A   Clear
5:18 AM 66.2 °F - 62.6 °F 88% 29.84 in 10.0 mi SSE 15.0 mph - N/A Rain Light Rain
5:26 AM 66.2 °F - 62.6 °F 88% 29.84 in 10.0 mi SSE 12.7 mph - N/A   Mostly Cloudy
5:56 AM 66.6 °F - 61.5 °F 84% 29.81 in 10.0 mi SSE 6.9 mph - 0.03 in   Mostly Cloudy
6:56 AM 69.6 °F - 59.0 °F 69% 29.84 in 10.0 mi SSW 6.9 mph - N/A   Scattered Clouds
7:56 AM 67.6 °F - 61.2 °F 80% 29.86 in 10.0 mi SSW 12.7 mph - N/A   Partly Cloudy
8:56 AM 68.0 °F - 62.2 °F 82% 29.87 in 10.0 mi SW 5.8 mph - N/A   Partly Cloudy
9:56 AM 71.1 °F - 62.8 °F 75% 29.87 in 10.0 mi SSW 4.6 mph - N/A   Mostly Cloudy
10:56 AM 75.7 °F - 63.5 °F 66% 29.84 in 10.0 mi ESE 5.8 mph - N/A   Partly Cloudy
11:56 AM 78.3 °F - 65.1 °F 64% 29.88 in 10.0 mi SE 11.5 mph - N/A   Clear
12:56 PM 80.2 °F 82.3 °F 66.0 °F 62% 29.86 in 10.0 mi SSE 11.5 mph - N/A   Mostly Cloudy
1:56 PM 83.5 °F 85.5 °F 66.0 °F 55% 29.86 in 10.0 mi SE 13.8 mph - N/A   Scattered Clouds
2:56 PM 84.7 °F 87.1 °F 66.2 °F 54% 29.85 in 10.0 mi SSE 15.0 mph - N/A   Clear
3:56 PM 86.0 °F 88.2 °F 66.2 °F 51% 29.83 in 10.0 mi SSE 17.3 mph 24.2 mph N/A   Partly Cloudy
4:56 PM 88.0 °F 91.0 °F 67.5 °F 50% 29.81 in 10.0 mi SSE 13.8 mph 23.0 mph N/A   Scattered Clouds
5:56 PM 86.0 °F 89.4 °F 68.4 °F 55% 29.79 in 10.0 mi SSE 17.3 mph - N/A   Clear
6:56 PM 84.4 °F 87.6 °F 68.4 °F 58% 29.77 in 10.0 mi SSE 17.3 mph - N/A   Clear
7:56 PM 81.9 °F 85.2 °F 68.9 °F 65% 29.77 in 10.0 mi SSE 13.8 mph - N/A   Clear
8:56 PM 79.0 °F - 68.7 °F 71% 29.80 in 10.0 mi SSE 8.1 mph - N/A   Clear
9:56 PM 76.8 °F - 68.5 °F 75% 29.81 in 10.0 mi SSE 10.4 mph - N/A   Clear
10:56 PM 75.6 °F - 68.2 °F 78% 29.81 in 10.0 mi SSE 8.1 mph - N/A   Clear
11:56 PM 73.2 °F - 67.6 °F 83% 29.81 in 10.0 mi SSE 6.9 mph - N/A   Clear